User: anonymous   Login
Location: Bishop's University Astronomical Observatory
(45.3661°N, 71.8475°W)
Time: 04:18:57
(UTC-04:00)
Language:

Meteor 2-5 Rocket - Orbit

View from above orbital plane
View from above orbital plane
View from above satellite
View from above satellite

Ground track
Ground track

The orbit data is extracted from the following two-line orbital elements,

1 11608U 79095B   15213.34437538 -.00000063  00000-0 -44904-4 0  9991
2 11608 081.2153 156.5293 0053025 289.9305 069.6155 14.06072312833697
Epoch (UTC): 01 August 2015 08:15:54
Eccentricity: 0.0053025
inclination: 81.2153°
perigee height: 834 km
apogee height: 911 km
right ascension of ascending node: 156.5293°
argument of perigee: 289.9305°
revolutions per day: 14.06072312
mean anomaly at epoch: 69.6155°
orbit number at epoch: 83369

The dashed part of the orbit path shows where the satellite is in the earth's shadow,  

DLR